contact:dominique.lefevre@mio.osupytheas.fr, maurice.libes@osupytheas.fr, didier.mallarino@osupytheas.fr
Project:EMSO http://www.emso-fr.org/EMSO-France
Depth: 2436.0 m
Title:EMSO Ligure Ouest : Data MII capteur MICROCAT
DateTime_Computer,Latitude,Longitude,Temperature,Conductivity,Pressure,DateTime_Instrument
DateTime_Computer,Latitude,Longitude,degC,S m-1,dbar,DateTime_Instrument
2022-05-16T00:02:10Z,42.805,6.029,13.3006,4.60040,2470.39,2022-5-16T02:03:51Z
2022-05-16T00:05:13Z,42.805,6.029,13.3006,4.60040,2470.413,2022-5-16T02:06:54Z
2022-05-16T00:08:16Z,42.805,6.029,13.3004,4.60040,2470.39,2022-5-16T02:09:57Z
2022-05-16T00:11:19Z,42.805,6.029,13.3008,4.60040,2470.413,2022-5-16T02:13:00Z
2022-05-16T00:14:22Z,42.805,6.029,13.3007,4.60039,2470.427,2022-5-16T02:16:03Z
2022-05-16T00:17:25Z,42.805,6.029,13.3004,4.60040,2470.39,2022-5-16T02:19:06Z
2022-05-16T00:20:29Z,42.805,6.029,13.3003,4.60041,2470.39,2022-5-16T02:22:10Z
2022-05-16T00:23:32Z,42.805,6.029,13.3007,4.60042,2470.404,2022-5-16T02:25:13Z
2022-05-16T00:26:35Z,42.805,6.029,13.3007,4.60040,2470.427,2022-5-16T02:28:16Z
2022-05-16T00:29:38Z,42.805,6.029,13.3001,4.60039,2470.404,2022-5-16T02:31:19Z
2022-05-16T00:32:41Z,42.805,6.029,13.3007,4.60041,2470.404,2022-5-16T02:34:22Z
2022-05-16T00:35:44Z,42.805,6.029,13.3006,4.60042,2470.427,2022-5-16T02:37:25Z
2022-05-16T00:38:47Z,42.805,6.029,13.3008,4.60041,2470.38,2022-5-16T02:40:28Z
2022-05-16T00:41:50Z,42.805,6.029,13.3005,4.60040,2470.404,2022-5-16T02:43:31Z
2022-05-16T00:44:54Z,42.805,6.029,13.3009,4.60041,2470.39,2022-5-16T02:46:34Z
2022-05-16T00:47:57Z,42.805,6.029,13.3006,4.60041,2470.404,2022-5-16T02:49:38Z
2022-05-16T00:51:00Z,42.805,6.029,13.3006,4.60042,2470.39,2022-5-16T02:52:41Z
2022-05-16T00:54:03Z,42.805,6.029,13.3002,4.60041,2470.404,2022-5-16T02:55:44Z
2022-05-16T00:57:06Z,42.805,6.029,13.3008,4.60039,2470.413,2022-5-16T02:58:47Z
2022-05-16T01:00:09Z,42.805,6.029,13.3005,4.60040,2470.39,2022-5-16T03:01:50Z
2022-05-16T01:03:12Z,42.805,6.029,13.3005,4.60041,2470.404,2022-5-16T03:04:53Z
2022-05-16T01:06:15Z,42.805,6.029,13.3004,4.60039,2470.39,2022-5-16T03:07:56Z
2022-05-16T01:09:19Z,42.805,6.029,13.3005,4.60041,2470.38,2022-5-16T03:10:59Z
2022-05-16T01:12:22Z,42.805,6.029,13.3005,4.60042,2470.39,2022-5-16T03:14:03Z
2022-05-16T01:15:25Z,42.805,6.029,13.3006,4.60041,2470.39,2022-5-16T03:17:06Z
2022-05-16T01:18:28Z,42.805,6.029,13.3006,4.60041,2470.366,2022-5-16T03:20:09Z
2022-05-16T01:21:31Z,42.805,6.029,13.3009,4.60041,2470.366,2022-5-16T03:23:12Z
2022-05-16T01:24:34Z,42.805,6.029,13.3007,4.60041,2470.404,2022-5-16T03:26:15Z
2022-05-16T01:27:37Z,42.805,6.029,13.3010,4.60041,2470.39,2022-5-16T03:29:18Z
2022-05-16T01:30:40Z,42.805,6.029,13.3005,4.60042,2470.343,2022-5-16T03:32:21Z
2022-05-16T01:33:43Z,42.805,6.029,13.3010,4.60041,2470.366,2022-5-16T03:35:24Z
2022-05-16T01:36:47Z,42.805,6.029,13.3004,4.60040,2470.366,2022-5-16T03:38:28Z
2022-05-16T01:39:50Z,42.805,6.029,13.3008,4.60041,2470.38,2022-5-16T03:41:31Z
2022-05-16T01:42:53Z,42.805,6.029,13.3003,4.60042,2470.39,2022-5-16T03:44:34Z
2022-05-16T01:45:56Z,42.805,6.029,13.3007,4.60041,2470.39,2022-5-16T03:47:37Z
2022-05-16T01:48:59Z,42.805,6.029,13.3006,4.60042,2470.33,2022-5-16T03:50:40Z
2022-05-16T01:52:02Z,42.805,6.029,13.3006,4.60041,2470.39,2022-5-16T03:53:43Z
2022-05-16T01:55:05Z,42.805,6.029,13.3009,4.60043,2470.39,2022-5-16T03:56:46Z
2022-05-16T01:58:08Z,42.805,6.029,13.3007,4.60044,2470.366,2022-5-16T03:59:49Z
2022-05-16T02:01:12Z,42.805,6.029,13.3007,4.60044,2470.404,2022-5-16T04:02:53Z
2022-05-16T02:04:15Z,42.805,6.029,13.3005,4.60040,2470.366,2022-5-16T04:05:56Z
2022-05-16T02:07:18Z,42.805,6.029,13.3006,4.60041,2470.39,2022-5-16T04:08:59Z
2022-05-16T02:10:21Z,42.805,6.029,13.3006,4.60041,2470.357,2022-5-16T04:12:02Z
2022-05-16T02:13:24Z,42.805,6.029,13.3008,4.60041,2470.39,2022-5-16T04:15:05Z
2022-05-16T02:16:27Z,42.805,6.029,13.3009,4.60042,2470.38,2022-5-16T04:18:08Z
2022-05-16T02:19:30Z,42.805,6.029,13.3004,4.60043,2470.39,2022-5-16T04:21:11Z
2022-05-16T02:22:33Z,42.805,6.029,13.3007,4.60042,2470.366,2022-5-16T04:24:14Z
2022-05-16T02:25:37Z,42.805,6.029,13.3009,4.60042,2470.39,2022-5-16T04:27:17Z
2022-05-16T02:28:40Z,42.805,6.029,13.3009,4.60042,2470.39,2022-5-16T04:30:21Z
2022-05-16T02:31:43Z,42.805,6.029,13.3009,4.60042,2470.366,2022-5-16T04:33:24Z
2022-05-16T02:34:46Z,42.805,6.029,13.3010,4.60042,2470.39,2022-5-16T04:36:27Z
2022-05-16T02:37:49Z,42.805,6.029,13.3009,4.60044,2470.366,2022-5-16T04:39:30Z
2022-05-16T02:40:52Z,42.805,6.029,13.3004,4.60042,2470.404,2022-5-16T04:42:33Z
2022-05-16T02:43:55Z,42.805,6.029,13.3010,4.60044,2470.413,2022-5-16T04:45:36Z
2022-05-16T02:46:58Z,42.805,6.029,13.3009,4.60044,2470.437,2022-5-16T04:48:39Z
2022-05-16T02:50:01Z,42.805,6.029,13.3011,4.60044,2470.413,2022-5-16T04:51:42Z
2022-05-16T02:53:05Z,42.805,6.029,13.3005,4.60043,2470.39,2022-5-16T04:54:46Z
2022-05-16T02:56:08Z,42.805,6.029,13.3006,4.60043,2470.39,2022-5-16T04:57:49Z
2022-05-16T02:59:11Z,42.805,6.029,13.3011,4.60043,2470.427,2022-5-16T05:00:52Z
2022-05-16T03:02:14Z,42.805,6.029,13.3007,4.60043,2470.376,2022-5-16T05:03:55Z
2022-05-16T03:05:17Z,42.805,6.029,13.3011,4.60044,2470.437,2022-5-16T05:06:58Z
2022-05-16T03:08:20Z,42.805,6.029,13.3009,4.60044,2470.404,2022-5-16T05:10:01Z
2022-05-16T03:11:23Z,42.805,6.029,13.3008,4.60044,2470.437,2022-5-16T05:13:04Z
2022-05-16T03:14:26Z,42.805,6.029,13.3009,4.60045,2470.413,2022-5-16T05:16:07Z
2022-05-16T03:17:30Z,42.805,6.029,13.3007,4.60045,2470.427,2022-5-16T05:19:11Z
2022-05-16T03:20:33Z,42.805,6.029,13.3010,4.60045,2470.427,2022-5-16T05:22:14Z
2022-05-16T03:23:36Z,42.805,6.029,13.3011,4.60044,2470.39,2022-5-16T05:25:17Z
2022-05-16T03:26:39Z,42.805,6.029,13.3011,4.60043,2470.427,2022-5-16T05:28:20Z
2022-05-16T03:29:42Z,42.805,6.029,13.3011,4.60043,2470.437,2022-5-16T05:31:23Z
2022-05-16T03:32:45Z,42.805,6.029,13.3008,4.60044,2470.437,2022-5-16T05:34:26Z
2022-05-16T03:35:48Z,42.805,6.029,13.3008,4.60044,2470.413,2022-5-16T05:37:29Z
2022-05-16T03:38:51Z,42.805,6.029,13.3009,4.60043,2470.437,2022-5-16T05:40:32Z
2022-05-16T03:41:55Z,42.805,6.029,13.3011,4.60044,2470.45,2022-5-16T05:43:36Z
2022-05-16T03:44:58Z,42.805,6.029,13.3009,4.60044,2470.423,2022-5-16T05:46:39Z
2022-05-16T03:48:01Z,42.805,6.029,13.3009,4.60046,2470.413,2022-5-16T05:49:42Z
2022-05-16T03:51:04Z,42.805,6.029,13.3008,4.60044,2470.437,2022-5-16T05:52:45Z
2022-05-16T03:54:07Z,42.805,6.029,13.3010,4.60043,2470.474,2022-5-16T05:55:48Z
2022-05-16T03:57:10Z,42.805,6.029,13.3005,4.60043,2470.474,2022-5-16T05:58:51Z
2022-05-16T04:00:13Z,42.805,6.029,13.3007,4.60043,2470.497,2022-5-16T06:01:54Z
2022-05-16T04:03:16Z,42.805,6.029,13.3010,4.60044,2470.483,2022-5-16T06:04:57Z
2022-05-16T04:06:20Z,42.805,6.029,13.3011,4.60044,2470.497,2022-5-16T06:08:00Z
2022-05-16T04:09:23Z,42.805,6.029,13.3010,4.60044,2470.497,2022-5-16T06:11:04Z
2022-05-16T04:12:26Z,42.805,6.029,13.3009,4.60043,2470.483,2022-5-16T06:14:07Z
2022-05-16T04:15:29Z,42.805,6.029,13.3011,4.60044,2470.47,2022-5-16T06:17:10Z
2022-05-16T04:18:32Z,42.805,6.029,13.3012,4.60044,2470.483,2022-5-16T06:20:13Z
2022-05-16T04:21:35Z,42.805,6.029,13.3006,4.60046,2470.497,2022-5-16T06:23:16Z
2022-05-16T04:24:38Z,42.805,6.029,13.3007,4.60045,2470.483,2022-5-16T06:26:19Z
2022-05-16T04:27:41Z,42.805,6.029,13.3009,4.60045,2470.497,2022-5-16T06:29:22Z
2022-05-16T04:30:45Z,42.805,6.029,13.3005,4.60046,2470.493,2022-5-16T06:32:25Z
2022-05-16T04:33:48Z,42.805,6.029,13.3004,4.60045,2470.544,2022-5-16T06:35:29Z
2022-05-16T04:36:51Z,42.805,6.029,13.3010,4.60044,2470.53,2022-5-16T06:38:32Z
2022-05-16T04:39:54Z,42.805,6.029,13.3011,4.60044,2470.507,2022-5-16T06:41:35Z
2022-05-16T04:42:57Z,42.805,6.029,13.3009,4.60044,2470.507,2022-5-16T06:44:38Z
2022-05-16T04:46:00Z,42.805,6.029,13.3007,4.60046,2470.52,2022-5-16T06:47:41Z
2022-05-16T05:13:08Z,42.805,6.029,13.3008,4.60046,2470.553,2022-5-16T07:14:49Z
2022-05-16T05:16:11Z,42.805,6.029,13.3010,4.60045,2470.553,2022-5-16T07:17:52Z
2022-05-16T05:19:14Z,42.805,6.029,13.3009,4.60044,2470.544,2022-5-16T07:20:55Z
2022-05-16T05:22:17Z,42.805,6.029,13.3011,4.60047,2470.53,2022-5-16T07:23:58Z
2022-05-16T05:25:20Z,42.805,6.029,13.3008,4.60047,2470.53,2022-5-16T07:27:01Z
2022-05-16T05:28:23Z,42.805,6.029,13.3012,4.60046,2470.567,2022-5-16T07:30:04Z
2022-05-16T05:31:26Z,42.805,6.029,13.3011,4.60047,2470.553,2022-5-16T07:33:07Z
2022-05-16T05:34:30Z,42.805,6.029,13.3010,4.60049,2470.577,2022-5-16T07:36:10Z
2022-05-16T05:37:33Z,42.805,6.029,13.3009,4.60046,2470.539,2022-5-16T07:39:14Z
2022-05-16T05:40:36Z,42.805,6.029,13.3008,4.60047,2470.553,2022-5-16T07:42:17Z
2022-05-16T05:43:39Z,42.805,6.029,13.3011,4.60046,2470.577,2022-5-16T07:45:20Z
2022-05-16T05:46:42Z,42.805,6.029,13.3015,4.60049,2470.591,2022-5-16T07:48:23Z
2022-05-16T05:49:45Z,42.805,6.029,13.3009,4.60047,2470.577,2022-5-16T07:51:26Z
2022-05-16T05:52:48Z,42.805,6.029,13.3014,4.60046,2470.553,2022-5-16T07:54:29Z
2022-05-16T05:55:51Z,42.805,6.029,13.3011,4.60046,2470.591,2022-5-16T07:57:32Z
2022-05-16T05:58:55Z,42.805,6.029,13.3012,4.60046,2470.553,2022-5-16T08:00:35Z
2022-05-16T06:01:58Z,42.805,6.029,13.3009,4.60047,2470.577,2022-5-16T08:03:39Z
2022-05-16T06:05:01Z,42.805,6.029,13.3011,4.60047,2470.577,2022-5-16T08:06:42Z
2022-05-16T06:08:04Z,42.805,6.029,13.3011,4.60048,2470.614,2022-5-16T08:09:45Z
2022-05-16T06:11:07Z,42.805,6.029,13.3012,4.60049,2470.553,2022-5-16T08:12:48Z
2022-05-16T06:14:10Z,42.805,6.029,13.3009,4.60047,2470.577,2022-5-16T08:15:51Z
2022-05-16T06:17:13Z,42.805,6.029,13.3012,4.60046,2470.6,2022-5-16T08:18:54Z
2022-05-16T06:20:16Z,42.805,6.029,13.3012,4.60046,2470.577,2022-5-16T08:21:57Z
2022-05-16T06:23:19Z,42.805,6.029,13.3012,4.60047,2470.591,2022-5-16T08:25:00Z
2022-05-16T06:26:23Z,42.805,6.029,13.3007,4.60047,2470.577,2022-5-16T08:28:04Z
2022-05-16T06:29:26Z,42.805,6.029,13.3007,4.60049,2470.577,2022-5-16T08:31:07Z
2022-05-16T06:32:29Z,42.805,6.029,13.3010,4.60052,2470.6,2022-5-16T08:34:10Z
2022-05-16T06:35:32Z,42.805,6.029,13.3009,4.60051,2470.563,2022-5-16T08:37:13Z
2022-05-16T06:38:35Z,42.805,6.029,13.3007,4.60052,2470.6,2022-5-16T08:40:16Z
2022-05-16T06:41:38Z,42.805,6.029,13.3006,4.60049,2470.591,2022-5-16T08:43:19Z
2022-05-16T06:44:41Z,42.805,6.029,13.3014,4.60052,2470.624,2022-5-16T08:46:22Z
2022-05-16T06:47:44Z,42.805,6.029,13.3013,4.60052,2470.577,2022-5-16T08:49:25Z
2022-05-16T06:50:48Z,42.805,6.029,13.3010,4.60046,2470.591,2022-5-16T08:52:29Z
2022-05-16T06:53:51Z,42.805,6.029,13.3011,4.60050,2470.6,2022-5-16T08:55:32Z
2022-05-16T06:56:54Z,42.805,6.029,13.3011,4.60048,2470.614,2022-5-16T08:58:35Z
2022-05-16T06:59:57Z,42.805,6.029,13.3010,4.60048,2470.577,2022-5-16T09:01:38Z
2022-05-16T07:03:00Z,42.805,6.029,13.3014,4.60049,2470.614,2022-5-16T09:04:41Z
2022-05-16T07:06:03Z,42.805,6.029,13.3017,4.60050,2470.6,2022-5-16T09:07:44Z
2022-05-16T07:09:06Z,42.805,6.029,13.3015,4.60049,2470.614,2022-5-16T09:10:47Z
2022-05-16T07:12:09Z,42.805,6.029,13.3010,4.60052,2470.591,2022-5-16T09:13:50Z
2022-05-16T07:15:13Z,42.805,6.029,13.3015,4.60052,2470.591,2022-5-16T09:16:54Z
2022-05-16T07:18:16Z,42.805,6.029,13.3014,4.60051,2470.591,2022-5-16T09:19:57Z
2022-05-16T07:21:19Z,42.805,6.029,13.3012,4.60052,2470.577,2022-5-16T09:23:00Z
2022-05-16T07:24:22Z,42.805,6.029,13.3011,4.60052,2470.577,2022-5-16T09:26:03Z
2022-05-16T07:27:25Z,42.805,6.029,13.3016,4.60053,2470.567,2022-5-16T09:29:06Z
2022-05-16T07:30:28Z,42.805,6.029,13.3015,4.60050,2470.6,2022-5-16T09:32:09Z
2022-05-16T07:33:31Z,42.805,6.029,13.3014,4.60052,2470.591,2022-5-16T09:35:12Z
2022-05-16T07:36:34Z,42.805,6.029,13.3014,4.60053,2470.553,2022-5-16T09:38:15Z
2022-05-16T07:39:37Z,42.805,6.029,13.3016,4.60054,2470.567,2022-5-16T09:41:18Z
2022-05-16T07:42:41Z,42.805,6.029,13.3017,4.60053,2470.6,2022-5-16T09:44:22Z
2022-05-16T07:45:44Z,42.805,6.029,13.3015,4.60052,2470.591,2022-5-16T09:47:25Z
2022-05-16T07:48:47Z,42.805,6.029,13.3014,4.60056,2470.577,2022-5-16T09:50:28Z
2022-05-16T07:51:50Z,42.805,6.029,13.3014,4.60062,2470.577,2022-5-16T09:53:31Z
2022-05-16T07:54:53Z,42.805,6.029,13.3014,4.60053,2470.567,2022-5-16T09:56:34Z
2022-05-16T07:57:56Z,42.805,6.029,13.3016,4.60054,2470.553,2022-5-16T09:59:37Z
2022-05-16T08:00:59Z,42.805,6.029,13.3014,4.60054,2470.567,2022-5-16T10:02:40Z
2022-05-16T08:04:02Z,42.805,6.029,13.3017,4.60051,2470.553,2022-5-16T10:05:43Z
2022-05-16T08:07:06Z,42.805,6.029,13.3014,4.60051,2470.577,2022-5-16T10:08:47Z
2022-05-16T08:10:09Z,42.805,6.029,13.3013,4.60053,2470.544,2022-5-16T10:11:50Z
2022-05-16T08:13:12Z,42.805,6.029,13.3017,4.60052,2470.553,2022-5-16T10:14:53Z
2022-05-16T08:16:15Z,42.805,6.029,13.3012,4.60062,2470.553,2022-5-16T10:17:56Z
2022-05-16T08:19:18Z,42.805,6.029,13.3016,4.60052,2470.567,2022-5-16T10:20:59Z
2022-05-16T08:22:21Z,42.805,6.029,13.3016,4.60056,2470.614,2022-5-16T10:24:02Z
2022-05-16T08:25:24Z,42.805,6.029,13.3016,4.60053,2470.553,2022-5-16T10:27:05Z
2022-05-16T08:28:27Z,42.805,6.029,13.3019,4.60057,2470.553,2022-5-16T10:30:08Z
2022-05-16T08:31:31Z,42.805,6.029,13.3015,4.60061,2470.591,2022-5-16T10:33:12Z
2022-05-16T08:34:34Z,42.805,6.029,13.3018,4.60053,2470.567,2022-5-16T10:36:15Z
2022-05-16T08:37:37Z,42.805,6.029,13.3016,4.60057,2470.553,2022-5-16T10:39:18Z
2022-05-16T08:40:40Z,42.805,6.029,13.3013,4.60059,2470.553,2022-5-16T10:42:21Z
2022-05-16T08:43:43Z,42.805,6.029,13.3015,4.60062,2470.553,2022-5-16T10:45:24Z
2022-05-16T08:46:46Z,42.805,6.029,13.3014,4.60062,2470.507,2022-5-16T10:48:27Z
2022-05-16T08:49:49Z,42.805,6.029,13.3016,4.60058,2470.553,2022-5-16T10:51:30Z
2022-05-16T08:52:52Z,42.805,6.029,13.3016,4.60058,2470.567,2022-5-16T10:54:33Z
2022-05-16T08:55:56Z,42.805,6.029,13.3013,4.60063,2470.567,2022-5-16T10:57:37Z
2022-05-16T08:58:59Z,42.805,6.029,13.3014,4.60059,2470.553,2022-5-16T11:00:40Z
2022-05-16T09:02:02Z,42.805,6.029,13.3014,4.60062,2470.567,2022-5-16T11:03:43Z
2022-05-16T09:05:05Z,42.805,6.029,13.3019,4.60059,2470.53,2022-5-16T11:06:46Z
2022-05-16T09:08:08Z,42.805,6.029,13.3014,4.60062,2470.53,2022-5-16T11:09:49Z
2022-05-16T09:11:11Z,42.805,6.029,13.3015,4.60055,2470.544,2022-5-16T11:12:52Z
2022-05-16T09:14:14Z,42.805,6.029,13.3015,4.60064,2470.553,2022-5-16T11:15:55Z
2022-05-16T09:17:17Z,42.805,6.029,13.3017,4.60057,2470.507,2022-5-16T11:18:58Z
2022-05-16T09:20:21Z,42.805,6.029,13.3012,4.60067,2470.544,2022-5-16T11:22:02Z
2022-05-16T09:23:24Z,42.805,6.029,13.3014,4.60063,2470.53,2022-5-16T11:25:05Z
2022-05-16T09:26:27Z,42.805,6.029,13.3019,4.60062,2470.53,2022-5-16T11:28:08Z
2022-05-16T09:29:30Z,42.805,6.029,13.3017,4.60084,2470.53,2022-5-16T11:31:11Z
2022-05-16T09:32:33Z,42.805,6.029,13.3017,4.60074,2470.52,2022-5-16T11:34:14Z
2022-05-16T09:35:36Z,42.805,6.029,13.3015,4.60060,2470.53,2022-5-16T11:37:17Z
2022-05-16T09:38:39Z,42.805,6.029,13.3015,4.60070,2470.544,2022-5-16T11:40:20Z
2022-05-16T09:41:42Z,42.805,6.029,13.3020,4.60066,2470.507,2022-5-16T11:43:23Z
2022-05-16T09:44:46Z,42.805,6.029,13.3015,4.60063,2470.507,2022-5-16T11:46:27Z
2022-05-16T09:47:49Z,42.805,6.029,13.3014,4.60058,2470.53,2022-5-16T11:49:30Z
2022-05-16T09:50:52Z,42.805,6.029,13.3015,4.60055,2470.52,2022-5-16T11:52:33Z
2022-05-16T09:53:55Z,42.805,6.029,13.3015,4.60057,2470.507,2022-5-16T11:55:36Z
2022-05-16T09:56:58Z,42.805,6.029,13.3018,4.60057,2470.52,2022-5-16T11:58:39Z
2022-05-16T10:00:01Z,42.805,6.029,13.3015,4.60103,2470.483,2022-5-16T12:01:42Z
2022-05-16T10:03:04Z,42.805,6.029,13.3015,4.60089,2470.483,2022-5-16T12:04:45Z
2022-05-16T10:06:08Z,42.805,6.029,13.3021,4.60073,2470.497,2022-5-16T12:07:48Z
2022-05-16T10:09:11Z,42.805,6.029,13.3019,4.60082,2470.507,2022-5-16T12:10:52Z
2022-05-16T10:12:14Z,42.805,6.029,13.3017,4.60075,2470.483,2022-5-16T12:13:55Z
2022-05-16T10:15:17Z,42.805,6.029,13.3015,4.60072,2470.483,2022-5-16T12:16:58Z
2022-05-16T10:18:20Z,42.805,6.029,13.3014,4.60071,2470.483,2022-5-16T12:20:01Z
2022-05-16T10:21:23Z,42.805,6.029,13.3014,4.60079,2470.497,2022-5-16T12:23:04Z
2022-05-16T10:24:26Z,42.805,6.029,13.3014,4.60073,2470.497,2022-5-16T12:26:07Z
2022-05-16T10:27:29Z,42.805,6.029,13.3017,4.60076,2470.46,2022-5-16T12:29:10Z
2022-05-16T10:30:33Z,42.805,6.029,13.3016,4.60079,2470.497,2022-5-16T12:32:13Z
2022-05-16T10:33:36Z,42.805,6.029,13.3017,4.60074,2470.483,2022-5-16T12:35:17Z
2022-05-16T10:36:39Z,42.805,6.029,13.3015,4.60082,2470.497,2022-5-16T12:38:20Z
2022-05-16T10:39:42Z,42.805,6.029,13.3015,4.60076,2470.483,2022-5-16T12:41:23Z
2022-05-16T10:42:45Z,42.805,6.029,13.3014,4.60080,2470.474,2022-5-16T12:44:26Z
2022-05-16T10:45:48Z,42.805,6.029,13.3017,4.60072,2470.483,2022-5-16T12:47:29Z
2022-05-16T10:48:51Z,42.805,6.029,13.3015,4.60079,2470.46,2022-5-16T12:50:32Z
2022-05-16T10:51:54Z,42.805,6.029,13.3017,4.60098,2470.497,2022-5-16T12:53:35Z
2022-05-16T10:54:58Z,42.805,6.029,13.3016,4.60129,2470.437,2022-5-16T12:56:39Z
2022-05-16T10:58:01Z,42.805,6.029,13.3019,4.60100,2470.46,2022-5-16T12:59:42Z
2022-05-16T11:01:04Z,42.805,6.029,13.3016,4.60106,2470.413,2022-5-16T13:02:45Z
2022-05-16T11:04:07Z,42.805,6.029,13.3013,4.60105,2470.474,2022-5-16T13:05:48Z
2022-05-16T11:07:10Z,42.805,6.029,13.3014,4.60117,2470.46,2022-5-16T13:08:51Z
2022-05-16T11:10:13Z,42.805,6.029,13.3012,4.60086,2470.46,2022-5-16T13:11:54Z
2022-05-16T11:13:16Z,42.805,6.029,13.3017,4.60075,2470.474,2022-5-16T13:14:57Z
2022-05-16T11:16:19Z,42.805,6.029,13.3013,4.60071,2470.46,2022-5-16T13:18:00Z
2022-05-16T11:19:23Z,42.805,6.029,13.3012,4.60072,2470.437,2022-5-16T13:21:04Z
2022-05-16T11:22:26Z,42.805,6.029,13.3016,4.60077,2470.446,2022-5-16T13:24:07Z
2022-05-16T11:25:29Z,42.805,6.029,13.3016,4.60074,2470.45,2022-5-16T13:27:10Z
2022-05-16T11:28:32Z,42.805,6.029,13.3013,4.60079,2470.413,2022-5-16T13:30:13Z
2022-05-16T11:31:35Z,42.805,6.029,13.3014,4.60083,2470.437,2022-5-16T13:33:16Z
2022-05-16T11:34:38Z,42.805,6.029,13.3019,4.60089,2470.427,2022-5-16T13:36:19Z
2022-05-16T11:37:41Z,42.805,6.029,13.3017,4.60102,2470.413,2022-5-16T13:39:22Z
2022-05-16T11:40:44Z,42.805,6.029,13.3024,4.60094,2470.45,2022-5-16T13:42:25Z
2022-05-16T11:43:48Z,42.805,6.029,13.3021,4.60132,2470.437,2022-5-16T13:45:29Z
2022-05-16T11:46:51Z,42.805,6.029,13.3030,4.60108,2470.427,2022-5-16T13:48:32Z
2022-05-16T11:49:54Z,42.805,6.029,13.3042,4.60137,2470.413,2022-5-16T13:51:35Z
2022-05-16T11:52:57Z,42.805,6.029,13.3062,4.60120,2470.437,2022-5-16T13:54:38Z
2022-05-16T11:56:00Z,42.805,6.029,13.3063,4.60103,2470.404,2022-5-16T13:57:41Z
2022-05-16T11:59:03Z,42.805,6.029,13.3078,4.60089,2470.39,2022-5-16T14:00:44Z
2022-05-16T12:02:06Z,42.805,6.029,13.3084,4.60087,2470.39,2022-5-16T14:03:47Z
2022-05-16T12:05:09Z,42.805,6.029,13.3106,4.60082,2470.404,2022-5-16T14:06:50Z
2022-05-16T12:08:13Z,42.805,6.029,13.3067,4.60092,2470.413,2022-5-16T14:09:54Z
2022-05-16T12:11:16Z,42.805,6.029,13.3085,4.60102,2470.39,2022-5-16T14:12:57Z
2022-05-16T12:14:19Z,42.805,6.029,13.3089,4.60084,2470.427,2022-5-16T14:16:00Z
2022-05-16T12:17:22Z,42.805,6.029,13.3069,4.60078,2470.39,2022-5-16T14:19:03Z
2022-05-16T12:20:25Z,42.805,6.029,13.3076,4.60077,2470.427,2022-5-16T14:22:06Z
2022-05-16T12:23:28Z,42.805,6.029,13.3096,4.60088,2470.39,2022-5-16T14:25:09Z
2022-05-16T12:26:31Z,42.805,6.029,13.3097,4.60089,2470.404,2022-5-16T14:28:12Z
2022-05-16T12:29:34Z,42.805,6.029,13.3064,4.60077,2470.404,2022-5-16T14:31:15Z
2022-05-16T12:32:38Z,42.805,6.029,13.3075,4.60114,2470.404,2022-5-16T14:34:19Z
2022-05-16T12:35:41Z,42.805,6.029,13.3061,4.60097,2470.39,2022-5-16T14:37:22Z
2022-05-16T12:38:44Z,42.805,6.029,13.3073,4.60096,2470.39,2022-5-16T14:40:25Z
2022-05-16T12:41:47Z,42.805,6.029,13.3077,4.60077,2470.404,2022-5-16T14:43:28Z
2022-05-16T12:44:50Z,42.805,6.029,13.3078,4.60099,2470.39,2022-5-16T14:46:31Z
2022-05-16T12:47:53Z,42.805,6.029,13.3091,4.60096,2470.39,2022-5-16T14:49:34Z
2022-05-16T12:50:56Z,42.805,6.029,13.3078,4.60096,2470.39,2022-5-16T14:52:37Z
2022-05-16T12:54:00Z,42.805,6.029,13.3075,4.60127,2470.404,2022-5-16T14:55:40Z
2022-05-16T12:57:03Z,42.805,6.029,13.3078,4.60113,2470.427,2022-5-16T14:58:44Z
2022-05-16T13:00:06Z,42.805,6.029,13.3096,4.60092,2470.366,2022-5-16T15:01:47Z
2022-05-16T13:03:09Z,42.805,6.029,13.3076,4.60093,2470.38,2022-5-16T15:04:50Z
2022-05-16T13:06:12Z,42.805,6.029,13.3054,4.60105,2470.357,2022-5-16T15:07:53Z
2022-05-16T13:09:15Z,42.805,6.029,13.3062,4.60131,2470.357,2022-5-16T15:10:56Z
2022-05-16T13:12:18Z,42.805,6.029,13.3073,4.60152,2470.38,2022-5-16T15:13:59Z
2022-05-16T13:15:21Z,42.805,6.029,13.3062,4.60097,2470.404,2022-5-16T15:17:02Z
2022-05-16T13:18:24Z,42.805,6.029,13.3063,4.60089,2470.366,2022-5-16T15:20:05Z
2022-05-16T13:21:28Z,42.805,6.029,13.3087,4.60084,2470.38,2022-5-16T15:23:09Z
2022-05-16T13:24:31Z,42.805,6.029,13.3080,4.60075,2470.427,2022-5-16T15:26:12Z
2022-05-16T13:27:34Z,42.805,6.029,13.3041,4.60109,2470.404,2022-5-16T15:29:15Z
2022-05-16T13:30:37Z,42.805,6.029,13.3049,4.60104,2470.366,2022-5-16T15:32:18Z
2022-05-16T13:33:40Z,42.805,6.029,13.3044,4.60110,2470.353,2022-5-16T15:35:21Z
2022-05-16T13:36:43Z,42.805,6.029,13.3053,4.60160,2470.366,2022-5-16T15:38:24Z
2022-05-16T13:39:46Z,42.805,6.029,13.3060,4.60131,2470.366,2022-5-16T15:41:27Z
2022-05-16T13:42:49Z,42.805,6.029,13.3067,4.60109,2470.39,2022-5-16T15:44:30Z
2022-05-16T13:45:53Z,42.805,6.029,13.3093,4.60089,2470.39,2022-5-16T15:47:34Z
2022-05-16T13:48:56Z,42.805,6.029,13.3100,4.60113,2470.343,2022-5-16T15:50:37Z
2022-05-16T13:51:59Z,42.805,6.029,13.3088,4.60122,2470.38,2022-5-16T15:53:40Z
2022-05-16T13:55:02Z,42.805,6.029,13.3082,4.60138,2470.38,2022-5-16T15:56:43Z
2022-05-16T13:58:05Z,42.805,6.029,13.3085,4.60103,2470.38,2022-5-16T15:59:46Z
2022-05-16T14:01:08Z,42.805,6.029,13.3096,4.60151,2470.366,2022-5-16T16:02:49Z
2022-05-16T14:04:11Z,42.805,6.029,13.3097,4.60076,2470.366,2022-5-16T16:05:52Z
2022-05-16T14:07:14Z,42.805,6.029,13.3106,4.60107,2470.343,2022-5-16T16:08:55Z
2022-05-16T14:10:18Z,42.805,6.029,13.3089,4.60101,2470.357,2022-5-16T16:11:59Z
2022-05-16T14:13:21Z,42.805,6.029,13.3076,4.60104,2470.38,2022-5-16T16:15:02Z
2022-05-16T14:16:24Z,42.805,6.029,13.3099,4.60109,2470.366,2022-5-16T16:18:05Z
2022-05-16T14:19:27Z,42.805,6.029,13.3086,4.60104,2470.38,2022-5-16T16:21:08Z
2022-05-16T14:22:30Z,42.805,6.029,13.3092,4.60132,2470.404,2022-5-16T16:24:11Z
2022-05-16T14:25:33Z,42.805,6.029,13.3070,4.60110,2470.404,2022-5-16T16:27:14Z
2022-05-16T14:28:36Z,42.805,6.029,13.3085,4.60122,2470.404,2022-5-16T16:30:17Z
2022-05-16T14:31:40Z,42.805,6.029,13.3086,4.60110,2470.404,2022-5-16T16:33:21Z
2022-05-16T14:34:43Z,42.805,6.029,13.3104,4.60148,2470.404,2022-5-16T16:36:24Z
2022-05-16T14:37:46Z,42.805,6.029,13.3099,4.60141,2470.39,2022-5-16T16:39:27Z
2022-05-16T14:40:49Z,42.805,6.029,13.3095,4.60087,2470.366,2022-5-16T16:42:30Z
2022-05-16T14:43:52Z,42.805,6.029,13.3093,4.60124,2470.38,2022-5-16T16:45:33Z
2022-05-16T14:46:55Z,42.805,6.029,13.3094,4.60086,2470.357,2022-5-16T16:48:36Z
2022-05-16T14:49:58Z,42.805,6.029,13.3079,4.60137,2470.38,2022-5-16T16:51:39Z
2022-05-16T14:53:01Z,42.805,6.029,13.3064,4.60147,2470.45,2022-5-16T16:54:42Z
2022-05-16T14:56:05Z,42.805,6.029,13.3066,4.60157,2470.427,2022-5-16T16:57:46Z
2022-05-16T14:59:08Z,42.805,6.029,13.3046,4.60116,2470.404,2022-5-16T17:00:49Z
2022-05-16T15:02:11Z,42.805,6.029,13.3053,4.60102,2470.427,2022-5-16T17:03:52Z
2022-05-16T15:05:14Z,42.805,6.029,13.3068,4.60135,2470.404,2022-5-16T17:06:55Z
2022-05-16T15:08:17Z,42.805,6.029,13.3072,4.60137,2470.366,2022-5-16T17:09:58Z
2022-05-16T15:11:20Z,42.805,6.029,13.3060,4.60123,2470.39,2022-5-16T17:13:01Z
2022-05-16T15:14:23Z,42.805,6.029,13.3067,4.60087,2470.404,2022-5-16T17:16:04Z
2022-05-16T15:17:26Z,42.805,6.029,13.3068,4.60104,2470.413,2022-5-16T17:19:07Z
2022-05-16T15:20:30Z,42.805,6.029,13.3069,4.60104,2470.39,2022-5-16T17:22:11Z
2022-05-16T15:23:33Z,42.805,6.029,13.3055,4.60076,2470.39,2022-5-16T17:25:14Z
2022-05-16T15:26:36Z,42.805,6.029,13.3087,4.60105,2470.46,2022-5-16T17:28:17Z
2022-05-16T15:29:39Z,42.805,6.029,13.3061,4.60105,2470.427,2022-5-16T17:31:20Z
2022-05-16T15:32:42Z,42.805,6.029,13.3070,4.60119,2470.427,2022-5-16T17:34:23Z
2022-05-16T15:35:45Z,42.805,6.029,13.3062,4.60079,2470.427,2022-5-16T17:37:26Z
2022-05-16T15:38:48Z,42.805,6.029,13.3076,4.60094,2470.413,2022-5-16T17:40:29Z